Regional Weather Roundup
Issued by NWS

Home | Current Version | Previous Version | Text Only | Print | Product List | Glossary On
Versions: 1 2 3 4 5 6 7 8 9 10 11 12 13 14 15 16 17 18 19 20 21 22 23 24 25 26 27 28 29 30 31 32 33 34 35 36 37 38 39 40 41 42 43 44 45 46 47 48 49 50
111
ASUS43 KMPX 302310
RWRMN
WEATHER ROUNDUP FOR MINNESOTA
NATIONAL WEATHER SERVICE TWIN CITIES/CHANHASSEN MN
600 PM CDT TUE AUG 30 2016


NOTE: "FAIR" INDICATES FEW OR NO CLOUDS BELOW 12,000 FEET WITH NO
SIGNIFICANT WEATHER AND/OR OBSTRUCTIONS TO VISIBILITY. N/A MEANS
CURRENT SKY AND/OR WEATHER CONDITIONS ARE NOT AVAILABLE.

MNZ060>063-068>070-310000-
   Twin Cities Metro

CITY           SKY/WX    TMP DP  RH WIND       PRES   REMARKS
TWIN CITIES    MOSUNNY   79  53  40 NW9       30.14S
ST PAUL        SUNNY     77  55  46 N8        30.14S
CRYSTAL        SUNNY     78  48  34 NW10      30.14S
BLAINE         MOSUNNY   79  54  41 NW10      30.15F
LAKEVILLE      CLOUDY    75  57  53 NW6       30.15S
EDEN PRAIRIE   SUNNY     79  57  46 NW9       30.14S
LAKEVILLE      CLOUDY    75  57  53 NW6       30.15S
SOUTH ST PAUL  SUNNY     78  55  44 N9        30.13F
LAKE ELMO      FAIR      77  59  53 N5        30.15F
$$
MNZ001>005-007-008-013>017-022>024-027-028-310000-
   Northwest Minnesota

CITY           SKY/WX    TMP DP  RH WIND       PRES   REMARKS
BEMIDJI        SUNNY     73  51  46 NW9       30.19F
HALLOCK        SUNNY     75  45  33 NW7       30.19F
ROSEAU         SUNNY     75  52  43 NW9       30.20S
WARROAD        SUNNY     73  52  46 NW8       30.20S
THIEF RVR FALL SUNNY     75  51  43 NW7       30.21S
CROOKSTON      SUNNY     77  52  41 N7        30.20S
FOSSTON        SUNNY     75  52  43 W8        30.21F
DETROIT LAKES  SUNNY     73  54  49 NW8       30.22F
MOORHEAD       SUNNY     79  48  34 NE8       30.20S
MAHNOMEN       FAIR      74  55  51 NW7       30.21S
$$
MNZ006-009>011-018-025>026-310000-
   North Central Minnesota

CITY           SKY/WX    TMP DP  RH WIND       PRES   REMARKS
BAUDETTE       SUNNY     72  52  49 NW7       30.18F
FLAG ISLAND    SUNNY     72  48  43 NW3       30.18S HAZE
INTL FALLS     SUNNY     70  50  49 NW9       30.17S
WASKISH        SUNNY     73  55  53 NW7       30.19S
BIG FORK       SUNNY     73  46  38 NW3       30.18S
LONGVILLE      SUNNY     73  50  43 CALM      30.19F
GRAND RAPIDS   SUNNY     72  51  47 NW9       30.20S
CRANE LAKE     SUNNY     70  46  43 N6        30.18S
ORR            SUNNY     70  45  40 NW6       30.15S
COOK           SUNNY     72  46  40 NW7       30.18S
WALKER         FAIR      73  52  48 NW7       30.20S
$$
MNZ012-019>021-037-310000-
   Northeast Minnesota

CITY           SKY/WX    TMP DP  RH WIND       PRES   REMARKS
DULUTH         SUNNY     73  48  41 NW10      30.15S
ELY            SUNNY     70  46  43 W7        30.16S
HIBBING        SUNNY     70  49  47 N9        30.17S
EVELETH        SUNNY     73  46  38 NW9       30.18S
DULUTH HARBOR  SUNNY     77  54  44 NW10      30.13S
TWO HARBORS    SUNNY     75  57  53 W3        30.12S
SILVER BAY     SUNNY     73  52  46 NW3       30.12R
GRAND MARAIS     N/A     68  58  70 W6        30.09F
G MARAIS ARPRT SUNNY     68  43  40 NW7       30.15R
$$
MNZ029>031-032-039>041-046>048-054>057-064-310000-
   West Central Minnesota

CITY           SKY/WX    TMP DP  RH WIND       PRES   REMARKS
FERGUS FALLS   SUNNY     79  54  41 N5        30.20S
WHEATON        SUNNY     81  55  41 N7        30.20S
MORRIS         SUNNY     81  52  36 N6        30.19S
ALEXANDRIA     SUNNY     78  52  40 N5        30.21F
ELBOW LAKE     FAIR      77  52  42 N5        30.20S
WADENA         SUNNY     75  55  50 N5        30.19S
GLENWOOD       SUNNY     77  54  44 NW6       30.20F
APPLETON       SUNNY     81  50  34 N5        30.17F
BENSON         SUNNY     79  52  38 CALM      30.18F
ORTONVILLE     SUNNY     81  55  41 CALM      30.18F
MADISON        SUNNY     79  55  44 NE5       30.18F
WILLMAR        FAIR      79  55  44 N7        30.19F
$$
MNZ033>034-036-042>043-049>051-058-059-310000-
   Central Minnesota

CITY           SKY/WX    TMP DP  RH WIND       PRES   REMARKS
ST CLOUD       SUNNY     77  55  46 N5        30.17S
SAUK CENTRE    FAIR      76  53  44 N5        30.19F
PAYNESVILLE    SUNNY     77  52  41 N5        30.19S
AITKIN         SUNNY     75  50  41 W3        30.17S
PINE RIVER     SUNNY     75  54  46 N7        30.21F
BRAINERD       SUNNY     75  52  44 N7        30.18F
STAPLES        SUNNY     75  50  41 NW8       30.19S
LONG PRAIRIE   FAIR      75  54  46 NW5       30.20S
LITTLE FALLS   SUNNY     77  48  36 NW5       30.18S
LITCHFIELD     SUNNY     79  55  44 N8        30.18F
BUFFALO        SUNNY     76  50  39 NW7       30.17F
MAPLE LAKE     SUNNY     77  56  48 N5        30.18S
HUTCHINSON     SUNNY     77  58  52 NW6       30.18F
$$
MNZ037-044-045-052-053-310000-
   East Central Minnesota

CITY           SKY/WX    TMP DP  RH WIND       PRES   REMARKS
PRINCETON      SUNNY     79  55  44 NW7       30.17S
MORA           SUNNY     73  50  43 N8        30.18S
CAMBRIDGE      SUNNY     79  57  47 N6        30.15S
RUSH CITY      SUNNY     75  56  51 NW8       30.16R
MOOSE LAKE     SUNNY     73  50  43 N6        30.15S
HINCKLEY       FAIR      77  54  44 NW6       30.15S
CLOQUET        SUNNY     73  45  35 NW9       30.16S
MCGREGOR       SUNNY     73  50  43 N8        30.17F
$$
MNZ071>073-080-081-089-090-097-098-310000-
   Southwest Minnesota

CITY           SKY/WX    TMP DP  RH WIND       PRES   REMARKS
MONTEVIDEO     SUNNY     81  55  41 NE6       30.20F
GRANITE FALLS  SUNNY     80  58  47 N6        30.19F
CANBY          SUNNY     80  59  49 NE7       30.19F
MARSHALL       SUNNY     78  59  51 NE8       30.19S
REDWOOD FALLS  SUNNY     80  58  46 VRB3      30.17F
OLIVIA         SUNNY     77  55  47 N6        30.17F
WINDOM         CLOUDY    77  63  61 NW6       30.18F
WORTHINGTON    MOSUNNY   77  63  61 N7        30.19F
JACKSON        MOSUNNY   75  61  60 VRB3      30.19S
TRACY          SUNNY     77  63  62 N6        30.20S
SLAYTON        SUNNY     75  63  64 N7        30.20F
$$
MNZ065>067-074>077-082>085-091>093-310000-
   South Central Minnesota

CITY           SKY/WX    TMP DP  RH WIND       PRES   REMARKS
NEW ULM        SUNNY     75  57  53 N5        30.17S
ST JAMES       CLOUDY    75  61  60 NW5       30.18S
FAIRMONT       CLOUDY    77  64  64 N7        30.17F
GLENCOE        SUNNY     76  59  55 NW6       30.16F
FARIBAULT      CLOUDY    77  59  53 NW5       30.16S
OWATONNA       CLOUDY    75  57  53 NW8       30.15F
WASECA         CLOUDY    72  59  64 NW5       30.17S
ALBERT LEA     MOSUNNY   73  63  68 N7        30.15S
$$
MNZ078>079-086>088-094>096-310000-
   Southeast Minnesota

CITY           SKY/WX    TMP DP  RH WIND       PRES   REMARKS
ROCHESTER      SUNNY     74  62  66 NW10      30.14F
RED WING       CLOUDY    77  59  53 NW6       30.12S
STANTON        MOSUNNY   77  55  47 N5        30.13S
DODGE CENTER   CLOUDY    73  61  64 N7        30.15F
WINONA         MOSUNNY   77  61  57 NW13      30.11S
AUSTIN         SUNNY     75  63  64 N6        30.14S
PRESTON        MOSUNNY   76  62  60 N6        30.14S
$$
ABBREVIATIONS USED IN REMARKS
   TC - TEMPERATURES IN CELSIUS
  WCI - WIND CHILL INDEX
   HX - HEAT INDEX
  VSB - VISIBILITY
$$




USA.gov is the U.S. government's official web portal to all federal, state and local government web resources and services.